Pampa, TX

2:00 PM CDT on September 25, 2017 (GMT -0500)
Perry Lefors

Weather History for KPPA - January, 2014

Change the Weather History Date:

Sunday, January 5, 2014

  Actual Average Record
Temperature  
Mean Temperature 12 °F -  
Max Temperature 19 °F 44 °F 69 °F (1989)
Min Temperature 6 °F 20 °F -1 °F (1971)
Degree Days  
Heating Degree Days 52    
Moisture  
Dew Point 6 °F    
Average Humidity 73    
Maximum Humidity 89    
Minimum Humidity 44    
Precipitation  
Precipitation 0.00 in - - ()
Sea Level Pressure  
Sea Level Pressure 30.24 in    
Wind  
Wind Speed 14 mph (North)    
Max Wind Speed 23 mph    
Max Gust Speed 33 mph    
Visibility 9 miles    
Events Snow    
Averages and records for this station are not official NWS values.
T = Trace of Precipitation, MM = Missing Value Source: NWS Daily Summary

Daily Weather History Graph

Daily Weather History Graph

Search for Another Location

Airport or City:

Trip Planner

Search our weather history database for the weather conditions in past years. The results will help you decide how hot, cold, wet, or windy it might be!

Date:

Astronomy

Jan. 05, 2014 Rise Set
Actual Time 7:54 AM CST 5:45 PM CST
Civil Twilight 7:25 AM CST 6:13 PM CST
Nautical Twilight 6:54 AM CST 6:45 PM CST
Astronomical Twilight 6:23 AM CST 7:15 PM CST
Moon 10:47 AM CST (1/5) 11:03 PM CST (1/5)
Length of Visible Light 10h 47m
Length of Day
9h 51m
Waxing Crescent, 25% of the Moon is Illuminated
Jan 5
Waxing Crescent
Jan 7
First Quarter
Jan 15
Full
Jan 23
Last Quarter
Jan 30
New

Hourly Weather History & Observations

Time (CST) Temp. Windchill Dew Point Humidity Pressure Visibility Wind Dir Wind Speed Gust Speed Precip Events Conditions
12:15 AM 19.8 °F 5.4 °F 16.7 °F 88% 30.02 in 3.0 mi North 16.1 mph 24.2 mph N/A Snow Light Snow
12:35 AM 19.9 °F 5.7 °F 16.7 °F 87% 30.02 in 1.8 mi North 16.1 mph 23.0 mph N/A Snow Light Snow
12:55 AM 19.9 °F 6.2 °F 16.7 °F 87% 30.02 in 2.0 mi North 15.0 mph 26.5 mph N/A Snow Light Snow
1:15 AM 19.9 °F 5.7 °F 17.1 °F 89% 30.02 in 2.5 mi North 16.1 mph 20.7 mph N/A Snow Light Snow
1:35 AM 19.9 °F 6.7 °F 16.9 °F 88% 30.03 in 3.0 mi North 13.8 mph 21.9 mph N/A Snow Light Snow
1:55 AM 19.9 °F 6.2 °F 17.2 °F 89% 30.03 in 3.0 mi North 15.0 mph - N/A Snow Light Snow
2:15 AM 19.4 °F 2.8 °F 16.0 °F 87% 30.05 in 2.5 mi North 21.9 mph 27.6 mph N/A Snow Light Snow
2:35 AM 18.9 °F 1.7 °F 15.3 °F 86% 30.05 in 4.0 mi North 23.0 mph 33.4 mph N/A Snow Light Snow
2:55 AM 16.9 °F -0.5 °F 13.5 °F 86% 30.06 in 5.0 mi North 21.9 mph 28.8 mph N/A   Mostly Cloudy
3:15 AM 16.7 °F 0.1 °F 13.1 °F 86% 30.07 in 10.0 mi North 19.6 mph 26.5 mph N/A   Mostly Cloudy
3:35 AM 17.1 °F 1.5 °F 13.5 °F 86% 30.07 in 10.0 mi North 17.3 mph 24.2 mph N/A   Overcast
3:55 AM 15.8 °F 0.3 °F 12.7 °F 88% 30.08 in 10.0 mi North 16.1 mph - N/A   Mostly Cloudy
4:15 AM 16.2 °F 1.9 °F 13.1 °F 88% 30.09 in 10.0 mi NNW 13.8 mph - N/A   Mostly Cloudy
4:35 AM 16.3 °F 1.6 °F 13.1 °F 87% 30.08 in 10.0 mi NNW 15.0 mph - N/A   Overcast
4:55 AM 14.0 °F -0.2 °F 11.1 °F 88% 30.08 in 10.0 mi NNW 12.7 mph - N/A   Scattered Clouds
5:15 AM 13.1 °F -0.7 °F 10.2 °F 88% 30.09 in 10.0 mi NNW 11.5 mph - N/A   Clear
5:35 AM 11.3 °F -1.3 °F 8.4 °F 88% 30.10 in 5.0 mi NNW 9.2 mph - N/A   Clear
5:55 AM 10.2 °F -2.7 °F 7.3 °F 88% 30.11 in 5.0 mi NW 9.2 mph - N/A Snow Light Snow
6:15 AM 8.8 °F -4.4 °F 5.7 °F 87% 30.11 in 10.0 mi NW 9.2 mph - N/A   Clear
6:35 AM 11.7 °F -3.2 °F 8.8 °F 88% 30.11 in 10.0 mi NW 12.7 mph - N/A   Clear
6:55 AM 11.3 °F -3.6 °F 8.1 °F 87% 30.11 in 10.0 mi NNW 12.7 mph - N/A   Clear
7:15 AM 11.5 °F -4.1 °F 8.1 °F 86% 30.13 in 10.0 mi NNW 13.8 mph - N/A   Clear
7:35 AM 10.9 °F -4.1 °F 7.0 °F 84% 30.14 in 10.0 mi NNW 12.7 mph - N/A   Clear
7:55 AM 10.0 °F -4.5 °F 5.9 °F 83% 30.17 in 10.0 mi NNW 11.5 mph - N/A   Clear
8:15 AM 9.1 °F -5.6 °F 5.0 °F 83% 30.18 in 10.0 mi NW 11.5 mph - N/A   Clear
8:35 AM 9.1 °F -5.6 °F 4.6 °F 82% 30.19 in 10.0 mi NNW 11.5 mph - N/A   Clear
8:55 AM 10.0 °F -5.2 °F 4.8 °F 79% 30.20 in 10.0 mi NNW 12.7 mph - N/A   Clear
9:15 AM 11.1 °F -4.5 °F 5.0 °F 76% 30.20 in 10.0 mi North 13.8 mph 17.3 mph N/A   Clear
9:35 AM 12.0 °F -4.5 °F 4.8 °F 73% 30.21 in 10.0 mi North 16.1 mph 20.7 mph N/A   Clear
9:55 AM 12.6 °F -2.7 °F 4.8 °F 71% 30.23 in 10.0 mi North 13.8 mph - N/A   Clear
10:15 AM 13.6 °F -1.9 °F 4.8 °F 68% 30.24 in 10.0 mi North 15.0 mph - N/A   Clear
10:35 AM 14.0 °F -1.4 °F 2.8 °F 61% 30.25 in 10.0 mi North 15.0 mph 24.2 mph N/A   Clear
10:55 AM 14.9 °F -0.8 °F 2.8 °F 59% 30.27 in 10.0 mi North 16.1 mph - N/A   Clear
11:15 AM 15.3 °F -1.3 °F 2.7 °F 58% 30.26 in 10.0 mi North 18.4 mph 23.0 mph N/A   Clear
11:35 AM 15.8 °F 0.9 °F 2.5 °F 56% 30.27 in 10.0 mi North 15.0 mph - N/A   Clear
11:55 AM 15.8 °F 0.3 °F 0.9 °F 52% 30.25 in 10.0 mi North 16.1 mph - N/A   Clear
12:15 PM 16.5 °F 1.8 °F -0.9 °F 46% 30.25 in 10.0 mi North 15.0 mph 19.6 mph N/A   Clear
12:35 PM 16.9 °F 1.2 °F -1.8 °F 44% 30.24 in 10.0 mi North 17.3 mph 21.9 mph N/A   Clear
12:55 PM 17.6 °F 2.2 °F -0.9 °F 44% 30.24 in 10.0 mi North 17.3 mph 20.7 mph N/A   Clear
1:15 PM 18.1 °F 3.4 °F -0.2 °F 45% 30.23 in 10.0 mi North 16.1 mph - N/A   Clear
1:35 PM 18.5 °F 3.3 °F 1.2 °F 47% 30.23 in 10.0 mi North 17.3 mph 20.7 mph N/A   Clear
1:55 PM 18.7 °F 4.6 °F 2.3 °F 49% 30.24 in 10.0 mi North 15.0 mph 21.9 mph N/A   Clear
2:15 PM 18.9 °F 5.9 °F 3.2 °F 51% 30.24 in 10.0 mi North 12.7 mph 19.6 mph N/A   Clear
2:35 PM 18.9 °F 5.9 °F 4.6 °F 54% 30.25 in 10.0 mi North 12.7 mph - N/A   Clear
2:55 PM 19.2 °F 5.8 °F 5.0 °F 54% 30.25 in 10.0 mi North 13.8 mph - N/A   Clear
3:15 PM 18.5 °F 4.9 °F 4.3 °F 54% 30.25 in 10.0 mi North 13.8 mph - N/A   Clear
3:35 PM 18.5 °F 6.8 °F 4.1 °F 54% 30.27 in 10.0 mi NNE 10.4 mph - N/A   Clear
3:55 PM 18.5 °F 6.1 °F 4.3 °F 54% 30.28 in 10.0 mi North 11.5 mph 17.3 mph N/A   Clear
4:15 PM 18.3 °F 5.2 °F 4.1 °F 54% 30.30 in 10.0 mi North 12.7 mph 18.4 mph N/A   Clear
4:35 PM 17.8 °F 4.0 °F 3.7 °F 54% 30.30 in 10.0 mi North 13.8 mph 19.6 mph N/A   Clear
4:55 PM 17.1 °F 3.0 °F 4.1 °F 57% 30.32 in 10.0 mi North 13.8 mph 17.3 mph N/A   Clear
5:15 PM 15.8 °F 4.2 °F 4.3 °F 60% 30.32 in 10.0 mi North 9.2 mph - N/A   Clear
5:35 PM 14.2 °F 2.2 °F 4.1 °F 64% 30.33 in 10.0 mi North 9.2 mph - N/A   Clear
5:55 PM 12.7 °F -0.4 °F 3.7 °F 67% 30.34 in 10.0 mi NNE 10.4 mph - N/A   Clear
6:15 PM 12.2 °F -2.5 °F 3.6 °F 68% 30.34 in 10.0 mi NNE 12.7 mph - N/A   Clear
6:35 PM 10.9 °F -2.6 °F 3.4 °F 72% 30.36 in 10.0 mi NNE 10.4 mph - N/A   Clear
6:55 PM 10.6 °F -5.8 °F 3.6 °F 73% 30.37 in 10.0 mi NNE 15.0 mph 20.7 mph N/A   Scattered Clouds
7:15 PM 10.4 °F -4.1 °F 3.7 °F 74% 30.39 in 10.0 mi NNE 11.5 mph - N/A   Scattered Clouds
7:35 PM 9.9 °F -4.0 °F 3.6 °F 76% 30.40 in 10.0 mi NNE 10.4 mph - N/A   Scattered Clouds
7:55 PM 9.9 °F -4.0 °F 3.9 °F 77% 30.41 in 10.0 mi NNE 10.4 mph - N/A   Mostly Cloudy
8:15 PM 10.0 °F -3.7 °F 4.3 °F 78% 30.42 in 10.0 mi NNE 10.4 mph - N/A   Overcast
8:35 PM 10.0 °F -1.9 °F 4.6 °F 79% 30.43 in 10.0 mi NNE 8.1 mph - N/A   Overcast
8:55 PM 10.2 °F -3.5 °F 5.0 °F 79% 30.44 in 10.0 mi North 10.4 mph - N/A   Overcast
9:15 PM 11.3 °F -0.4 °F 6.1 °F 80% 30.45 in 10.0 mi North 8.1 mph - N/A   Overcast
9:35 PM 11.8 °F -1.5 °F 6.8 °F 80% 30.45 in 4.0 mi NNE 10.4 mph - N/A Snow Light Snow
9:55 PM 11.3 °F -2.9 °F 6.3 °F 80% 30.45 in 10.0 mi NNE 11.5 mph - N/A   Overcast
10:15 PM 10.0 °F -1.9 °F 5.5 °F 82% 30.46 in 10.0 mi NNE 8.1 mph - N/A   Scattered Clouds
10:35 PM 8.2 °F -3.0 °F 4.3 °F 84% 30.46 in 10.0 mi North 6.9 mph - N/A   Scattered Clouds
10:55 PM 7.3 °F -4.1 °F 3.7 °F 85% 30.46 in 10.0 mi North 6.9 mph - N/A   Mostly Cloudy
11:15 PM 6.8 °F -4.8 °F 3.7 °F 87% 30.46 in 10.0 mi North 6.9 mph - N/A   Mostly Cloudy
11:35 PM 6.8 °F -5.9 °F 3.4 °F 86% 30.47 in 10.0 mi NNW 8.1 mph - N/A   Overcast
11:55 PM 8.4 °F -1.6 °F 5.2 °F 87% 30.48 in 10.0 mi NNW 5.8 mph - N/A   Overcast